Location: Assche-ter-Heiden
(50.9174°N, 4.1574°E)
Time: 09:04:01
(UTC+00:00)

Cosmos 2227 - Pass Details

Date: 20 January 2020
Orbit: 836 x 860 km, 71.0° (Epoch: 27 February)

Event Time Altitude Azimuth Distance (km) Brightness Sun altitude
Exits shadow 05:08:57 24° 337° (NNW) 1,688 5.5 -22.6°
Maximum altitude 05:12:28 73° 58° (ENE) 883 4.3 -22.1°
Drops below altitude 10° 05:18:06 10° 144° (SE) 2,451 7.2 -21.2°
Sets 05:20:32 0° 146° (SE) 3,379 7.9 -20.8°
